CAPE
341 467 398 289 474 377 164 203 263 239 201 158 17 0 0 0 0 0 11 16 31 6 14 28 5 23 16 2 32 24 42 50 72
412 356 351 162 287 401 293 309 199 197 210 107 0 0 0 0 0 0 16 29 25 12 9 30 9 5 7 27 22 8 38 38 40
430 296 208 62 113 197 165 199 120 47 28 18 3 0 0 0 0 0 11 53 35 6 2 29 11 5 15 30 42 35 41 45 48
231 179 89 56 126 87 63 129 101 45 13 5 0 0 0 0 0 0 0 34 30 11 6 26 4 14 18 23 41 38 49 46 55
201 99 10 87 82 108 72 81 47 26 14 3 0 0 0 0 0 0 0 20 10 9 5 8 7 9 27 32 36 38 50 51 53
115 41 9 40 96 124 107 53 36 27 9 8 0 0 0 0 0 2 9 17 13 10 5 5 7 26 42 40 38 31 43 48 53
144 52 12 28 60 104 141 64 27 8 7 3 1 0 0 0 0 12 8 30 34 13 42 18 4 22 21 39 19 21 35 45 48
77 40 17 31 68 92 108 56 9 4 2 0 0 0 0 0 0 27 9 15 11 21 9 10 3 10 19 30 22 13 24 37 40
45 16 23 1 23 67 13 16 8 3 0 0 0 0 0 0 1 13 9 8 11 16 8 9 7 12 13 10 24 9 18 29 33
33 3 3 3 4 29 0 13 19 11 0 0 1 0 0 0 0 2 11 14 5 11 13 17 33 19 16 0 14 0 2 23 32
3 0 1 4 6 1 0 14 22 17 1 2 1 0 0 0 0 1 10 6 12 30 12 4 23 19 45 42 9 2 2 7 28
0 0 3 4 2 0 0 20 22 19 6 0 1 0 0 0 0 10 17 2 16 6 25 26 32 33 28 19 20 11 16 24 13
0 0 1 1 0 0 0 13 24 25 12 2 0 1 16 11 17 28 14 13 5 3 0 13 25 25 23 23 17 7 15 19 13
0 0 2 0 0 0 0 11 23 35 12 1 4 12 16 13 11 11 5 1 0 0 0 4 26 10 5 4 19 11 5 13 16
0 0 4 0 0 0 0 3 19 40 25 16 15 4 4 6 4 0 0 0 0 0 0 0 1 11 5 7 6 16 16 2 12
0 0 2 0 0 0 0 0 6 29 9 0 0 0 0 3 2 0 0 0 0 0 0 0 0 11 11 2 2 20 33 20 22
0 0 1 0 0 0 0 0 1 4 0 0 0 0 0 0 0 0 0 0 0 0 0 0 0 4 7 5 5 18 12 3 21
3 0 0 0 0 0 0 0 0 0 0 0 0 0 0 0 0 0 0 0 0 0 0 0 0 0 12 12 11 0 3 9 14
22 0 0 0 0 0 0 0 0 0 0 0 0 0 0 0 0 0 0 0 0 0 0 5 0 0 3 7 9 0 0 8 11
2 0 0 0 0 0 0 0 0 0 0 0 0 0 0 0 0 0 0 0 0 0 0 1 0 0 0 3 11 7 2 6 9
CIN
-67 -46 -69 -101 -53 -93 -197 -146 -125 -151 -173 -192 -352 0 0 0 0 0 -8 -2 0 0 0 -2 -1 -1 -2 -1 -3 0 -4 -95 -57
-47 -64 -63 -150 -101 -88 -125 -124 -150 -167 -192 -225 0 0 0 0 0 0 -5 -1 0 0 0 0 -1 -4 -3 -2 0 0 0 0 0
-25 -61 -105 -192 -172 -155 -177 -163 -217 -249 -198 -35 -44 0 0 0 0 0 -14 -1 -2 -4 0 -2 -1 -1 0 -2 0 0 0 0 0
-32 -88 -171 -148 -145 -216 -215 -187 -223 -191 -28 -51 -10 0 0 0 0 0 0 -8 -3 -3 0 0 0 -1 0 0 0 0 0 0 0
-43 -95 -245 -132 -131 -170 -212 -210 -256 -26 -47 -62 0 0 0 0 0 0 -1 -5 -2 -1 -2 -1 0 -1 0 -1 0 0 0 0 0
-55 -162 -44 -207 -97 -76 -142 -242 -26 -48 -69 -74 0 0 0 0 0 -11 -7 -5 -2 0 0 0 -1 -4 -1 -1 0 0 0 0 0
-18 -129 -47 -37 -139 -67 -58 -223 -31 -66 -86 -86 -84 0 0 0 0 -12 -4 -1 -3 -1 0 -1 0 -5 -8 -7 -2 0 0 0 0
-37 -96 -30 -27 -10 -116 -124 -73 -59 -97 -64 0 -78 0 0 0 0 -3 -9 -4 -2 0 -3 -1 -1 -2 -5 -6 -3 0 0 0 0
-26 -19 -7 -32 -2 -174 -20 -38 -63 -94 0 0 0 0 0 0 -5 -16 -9 -2 -4 -1 0 -1 -1 -2 -3 -1 -3 0 0 0 0
-54 -19 -6 0 0 0 0 -48 -68 -86 -14 0 -48 0 0 0 0 -5 -5 -3 0 -1 -1 -1 -2 0 -1 0 0 0 0 0 0
-89 -40 0 0 0 -1 0 -64 -58 -77 -35 -98 -51 0 0 0 0 -5 -9 -7 -2 -2 -1 -5 -1 -1 0 0 0 0 0 0 0
-7 0 0 0 0 0 0 -59 -65 -74 -93 -14 -25 0 0 0 0 -12 -12 -8 -5 -4 -2 -3 0 0 0 0 -1 0 -4 -3 -2
0 0 0 0 0 0 0 -54 -46 -61 -75 -77 0 -30 -40 -35 -31 -22 -18 -11 -5 -3 0 -5 -1 0 -1 -1 0 0 -3 -4 -4
0 0 0 0 0 0 0 -58 -41 -34 -53 -34 -70 -52 -36 -30 -41 -40 -27 -18 0 0 0 -7 -3 -1 0 -4 0 0 0 0 -2
0 0 -1 0 0 0 0 -54 -51 -37 -54 -65 -79 -61 -47 -56 -53 -11 0 0 0 0 0 -1 -4 -2 -2 -1 -1 0 -1 0 0
0 0 0 0 0 0 0 0 -56 -36 -75 0 0 0 0 -46 -45 0 0 0 0 0 0 0 -6 -2 -3 -3 0 0 0 -2 -1
0 -1 0 0 0 0 0 0 -6 -44 0 0 0 0 0 0 0 0 0 0 0 0 0 0 0 -6 -13 -7 -4 -1 -2 0 -1
-67 0 0 0 0 0 0 0 0 0 0 0 0 0 -4 0 0 0 0 0 0 0 0 0 0 0 -8 -11 -10 0 0 0 0
-28 0 0 0 0 0 0 0 0 0 0 0 0 0 0 0 0 0 0 0 0 0 0 -12 0 0 -14 -13 -10 0 0 0 0
0 -1 0 0 0 0 0 0 0 0 0 0 0 0 0 0 0 0 0 0 0 0 0 -4 -5 -5 0 -19 -9 -8 -9 -1 -2
Wind_Speed
7 8 11 9 8 9 9 9 9 10 11 12 13 14 15 17 19 21 21 23 24 24 25 26 27 28 29 29 30 31 31 32 33
9 10 11 11 10 9 8 7 8 10 11 11 11 13 14 15 16 19 21 21 23 23 24 25 26 27 29 29 30 30 31 31 32
8 11 11 12 11 9 8 8 8 8 9 10 9 10 12 13 15 17 18 19 21 22 23 24 26 26 28 29 30 30 31 31 32
11 11 11 11 10 10 9 8 7 6 6 6 7 7 8 10 12 15 16 18 20 21 23 24 25 27 28 28 30 31 30 31 32
15 13 12 11 11 11 10 9 8 6 3 2 2 3 6 8 11 14 17 18 17 21 23 23 25 27 27 28 30 30 30 31 31
19 16 14 13 12 12 12 11 9 7 3 1 1 2 3 6 8 12 15 17 19 20 21 23 25 26 26 28 29 30 30 30 30
25 20 16 15 13 14 15 13 10 8 6 4 3 2 2 3 6 9 14 18 19 19 22 22 24 25 24 26 28 29 30 30 30
28 25 20 18 17 16 16 15 12 11 8 5 4 2 2 4 3 9 12 15 18 18 18 19 22 24 24 24 26 27 29 29 30
30 27 24 20 20 19 17 17 13 13 10 5 3 5 3 3 1 5 8 13 17 17 17 19 21 22 24 24 25 27 28 28 29
30 28 25 22 22 23 21 19 16 13 11 9 5 4 5 6 3 2 6 10 14 17 17 18 19 20 23 23 24 25 26 28 28
33 30 27 24 25 24 23 22 19 15 13 11 8 5 5 5 3 1 3 7 11 15 17 18 17 17 19 20 23 24 25 27 27
36 34 30 26 26 26 24 24 21 18 15 13 10 7 6 5 4 2 3 7 10 12 15 14 14 15 15 17 18 22 23 25 26
39 37 33 28 27 27 27 26 24 21 17 15 12 10 9 9 7 4 1 3 5 9 13 12 12 12 13 15 17 19 20 21 24
42 39 35 30 28 28 28 28 25 24 20 17 15 14 11 11 11 8 4 1 2 6 10 10 6 12 12 13 14 17 19 20 21
44 41 37 33 31 30 28 29 28 25 23 19 17 15 14 12 11 9 7 5 3 4 6 6 7 7 11 12 13 13 17 18 19
49 43 39 36 34 32 28 29 28 27 24 20 18 16 16 13 11 12 10 9 8 5 4 4 6 6 9 9 11 12 13 15 17
47 45 41 38 35 34 31 31 32 29 26 26 22 21 20 19 16 14 13 11 10 8 3 3 5 6 7 9 9 9 10 12 13
46 46 42 41 38 36 33 32 33 32 31 26 26 24 24 19 21 19 17 14 12 10 9 1 6 6 8 8 9 8 10 11 13
45 47 44 43 40 40 36 33 33 32 34 32 30 27 23 23 22 24 22 18 15 12 12 6 2 8 8 8 7 9 10 10 11
42 46 47 47 44 38 38 35 36 35 36 35 33 29 24 23 21 22 23 24 22 15 13 8 4 4 5 7 7 8 10 9 9
Wind_Direction
164 155 147 153 150 137 125 111 97 94 91 90 85 79 72 66 66 64 56 60 59 52 51 64 58 61 66 71 63 68 64 62 62
183 168 159 156 159 153 144 129 112 102 95 91 86 78 74 69 65 66 69 68 61 55 52 51 56 65 70 70 71 74 68 66 66
208 175 164 161 163 165 161 146 131 112 98 91 85 77 70 66 66 67 60 60 61 56 58 59 61 75 75 71 77 76 73 68 71
211 187 176 178 169 168 172 172 160 136 111 95 86 65 58 58 61 68 65 63 66 55 66 71 66 82 77 80 80 74 70 70 70
216 209 206 203 196 192 189 188 185 168 149 94 36 46 47 59 61 69 76 73 58 70 73 74 75 84 76 81 73 75 74 73 73
220 219 218 219 215 210 202 194 192 187 185 127 68 1 355 52 50 66 75 73 76 77 72 80 84 82 72 72 73 75 78 77 73
228 227 220 221 213 211 214 201 200 206 228 241 266 311 356 30 44 51 77 83 81 72 74 77 88 89 70 71 76 80 83 81 78
229 229 226 229 225 214 214 211 216 223 214 232 255 275 302 297 8 75 72 77 87 72 67 69 84 86 76 66 77 84 84 88 83
227 225 227 227 228 223 213 217 207 223 224 211 231 257 279 269 9 59 62 77 87 79 73 78 82 84 89 87 73 87 92 91 91
223 221 226 227 228 224 220 217 214 215 222 233 217 235 256 256 264 17 63 73 78 89 73 79 77 79 93 89 90 93 100 95 93
221 223 226 228 227 224 219 220 219 214 219 230 231 223 241 253 246 248 59 73 77 83 81 85 74 69 64 70 75 83 100 98 97
225 225 226 228 227 220 218 221 221 219 222 224 226 223 231 237 225 216 87 79 83 82 81 69 57 63 61 67 57 70 77 92 99
226 226 227 225 223 217 218 218 222 224 220 221 223 227 233 237 237 221 209 87 63 70 81 73 73 65 57 61 68 74 70 70 83
225 226 226 222 220 218 217 222 220 223 221 221 227 232 235 236 238 234 205 224 24 48 84 78 15 76 65 66 60 74 80 73 71
225 226 224 220 218 218 217 219 222 223 223 224 225 231 235 236 235 224 234 253 295 6 52 49 39 52 63 71 72 59 76 80 76
222 224 222 219 217 217 214 217 218 224 219 216 225 233 238 234 229 234 240 251 269 300 39 52 46 51 65 56 67 67 66 64 78
219 221 221 219 218 218 215 216 219 225 218 221 222 230 238 241 239 240 243 250 262 275 302 112 70 57 60 71 63 65 59 65 60
220 221 221 220 219 219 217 215 216 221 223 220 228 231 237 232 244 244 246 248 255 265 267 159 117 91 94 82 80 63 74 73 84
220 221 221 220 220 221 219 218 219 222 223 227 232 236 239 234 241 245 245 248 253 257 254 247 133 126 105 106 87 83 83 75 78
228 223 222 222 221 219 220 219 222 226 226 226 229 233 238 236 245 240 242 247 251 251 242 241 245 132 110 110 109 105 99 91 77